Weather History for Mobile, AL

Change the Weather History Date:

Monday, November 19, 2012

  Actual Average Record
Temperature  
Mean Temperature 59 °F 59 °F  
Max Temperature 72 °F 70 °F 82 °F (1985)
Min Temperature 45 °F 48 °F 26 °F (1903)
Degree Days  
Heating Degree Days 6 7  
Month to date heating degree days 146 104  
Since 1 July heating degree days 201 159  
Cooling Degree Days 0 1  
Month to date cooling degree days 15 31  
Year to date cooling degree days 2697 2493  
Growing Degree Days 9 (Base 50)    
Moisture  
Dew Point 44 °F    
Average Humidity 67    
Maximum Humidity 93    
Minimum Humidity 40    
Precipitation  
Precipitation 0.00 in 0.18 in 1.99 in (1948)
Month to date precipitation 0.29 3.28  
Year to date precipitation 64.48 59.24  
Snow  
Snow 0.00 in 0.00 in 0.00 in (2002)
Month to date snowfall 0.0 0.0  
Since 1 July snowfall 0.0 0.0  
Snow Depth 0.00 in    
Sea Level Pressure  
Sea Level Pressure 30.23 in    
Wind  
Wind Speed 2 mph (NNE)    
Max Wind Speed 9 mph    
Max Gust Speed 26 mph    
Visibility 10 miles    
Events      
T = Trace of Precipitation, MM = Missing Value Source: NWS Daily Summary

Daily Weather History Graph

Daily Weather History Graph

Search for Another Location

Airport:

Trip Planner

Search our weather history database for the weather conditions in past years. The results will help you decide how hot, cold, wet, or windy it might be!

Date:

Astronomy

Nov. 19, 2012 Rise Set
Actual Time 6:23 AM CST 4:53 PM CST
Civil Twilight 5:57 AM CST 5:19 PM CST
Nautical Twilight 5:28 AM CST 5:48 PM CST
Astronomical Twilight 4:59 AM CST 6:17 PM CST
Moon 11:34 AM CST (11/19) 11:09 PM CST (11/19)
Length of Visible Light 11h 22m
Length of Day
10h 30m
Waxing Crescent, 41% of the Moon is Illuminated
Nov 19
Waxing Crescent
Nov 20
First Quarter
Nov 28
Full
Dec 6
Last Quarter
Dec 13
New

Hourly Weather History & Observations

Time (CST) Temp. Dew Point Humidity Pressure Visibility Wind Dir Wind Speed Gust Speed Precip Events Conditions
12:56 AM 48.9 °F 41.0 °F 74% 30.28 in 10.0 mi Calm Calm - N/A   Partly Cloudy
1:56 AM 48.0 °F 41.0 °F 77% 30.27 in 10.0 mi NNE 3.5 mph - N/A   Partly Cloudy
2:56 AM 48.0 °F 39.9 °F 74% 30.27 in 10.0 mi Calm Calm - N/A   Partly Cloudy
3:56 AM 46.9 °F 39.9 °F 77% 30.26 in 10.0 mi NNE 3.5 mph - N/A   Partly Cloudy
4:56 AM 46.9 °F 39.9 °F 77% 30.26 in 10.0 mi NE 4.6 mph - N/A   Partly Cloudy
5:56 AM 46.0 °F 39.9 °F 79% 30.27 in 10.0 mi Calm Calm - N/A   Partly Cloudy
6:56 AM 46.9 °F 39.9 °F 77% 30.28 in 10.0 mi Calm Calm - N/A   Scattered Clouds
7:56 AM 54.0 °F 45.0 °F 72% 30.28 in 10.0 mi East 3.5 mph - N/A   Mostly Cloudy
8:56 AM 60.1 °F 45.0 °F 57% 30.28 in 10.0 mi East 5.8 mph - N/A   Mostly Cloudy
9:56 AM 64.0 °F 46.0 °F 52% 30.29 in 10.0 mi Calm Calm - N/A   Mostly Cloudy
10:56 AM 68.0 °F 48.0 °F 49% 30.28 in 10.0 mi Calm Calm - N/A   Scattered Clouds
11:56 AM 68.0 °F 45.0 °F 43% 30.25 in 10.0 mi Calm Calm - N/A   Scattered Clouds
12:56 PM 71.1 °F 46.0 °F 41% 30.23 in 10.0 mi Variable 5.8 mph - N/A   Scattered Clouds
1:56 PM 71.1 °F 46.0 °F 41% 30.20 in 10.0 mi West 6.9 mph - N/A   Scattered Clouds
2:56 PM 71.1 °F 46.0 °F 41% 30.18 in 10.0 mi West 5.8 mph - N/A   Scattered Clouds
3:56 PM 70.0 °F 45.0 °F 41% 30.18 in 10.0 mi NNW 4.6 mph - N/A   Partly Cloudy
4:56 PM 64.9 °F 46.0 °F 50% 30.17 in 10.0 mi Calm Calm - N/A   Scattered Clouds
5:56 PM 57.0 °F 46.9 °F 69% 30.18 in 10.0 mi Calm Calm - N/A   Partly Cloudy
6:56 PM 55.0 °F 46.9 °F 74% 30.20 in 10.0 mi Calm Calm - N/A   Clear
7:56 PM 51.1 °F 46.0 °F 83% 30.21 in 10.0 mi Calm Calm - N/A   Partly Cloudy
8:56 PM 48.0 °F 43.0 °F 83% 30.20 in 10.0 mi Calm Calm - N/A   Partly Cloudy
9:56 PM 46.9 °F 44.1 °F 90% 30.20 in 10.0 mi Calm Calm - N/A   Clear
10:56 PM 48.0 °F 44.1 °F 86% 30.19 in 10.0 mi Calm Calm - N/A   Partly Cloudy
11:56 PM 48.9 °F 44.1 °F 83% 30.19 in 10.0 mi Calm Calm - N/A   Clear